Time,TemperatureF,DewpointF,PressureIn,WindDirection,WindDirectionDegrees,WindSpeedMPH,WindSpeedGustMPH,Humidity,HourlyPrecipIn,Conditions,Clouds,dailyrainin,SolarRadiationWatts/m^2,SoftwareType,DateUTC
2013-02-25 00:04:00,12.6,8.4,30.13,SW,223,3.5,3.5,83,0.00,CLR,BKN,0.01,0.0,WeatherDisplay:10.37,2013-02-25 06:04:00,
2013-02-25 00:09:00,12.6,8.7,30.14,SW,223,3.5,3.5,84,0.00,CLR,BKN,0.01,0.0,WeatherDisplay:10.37,2013-02-25 06:09:00,
2013-02-25 00:14:00,12.6,8.7,30.14,SW,222,4.0,4.0,84,0.00,CLR,BKN,0.01,0.0,WeatherDisplay:10.37,2013-02-25 06:14:00,
2013-02-25 00:19:00,12.4,8.5,30.14,SW,222,4.0,4.0,84,0.00,CLR,BKN,0.01,0.0,WeatherDisplay:10.37,2013-02-25 06:19:00,
2013-02-25 00:24:00,12.4,8.7,30.14,SW,223,3.5,3.5,85,0.00,CLR,BKN,0.01,0.0,WeatherDisplay:10.37,2013-02-25 06:24:00,
2013-02-25 00:29:00,12.4,8.7,30.15,SW,223,4.6,4.6,85,0.00,CLR,BKN,0.01,0.0,WeatherDisplay:10.37,2013-02-25 06:29:00,
2013-02-25 00:35:00,12.4,8.7,30.15,SW,223,3.5,3.7,85,0.00,CLR,BKN,0.01,0.0,WeatherDisplay:10.37,2013-02-25 06:35:00,
2013-02-25 00:40:00,12.4,8.7,30.15,SW,223,4.0,4.0,85,0.00,CLR,BKN,0.01,0.0,WeatherDisplay:10.37,2013-02-25 06:40:00,
2013-02-25 00:45:00,12.4,8.7,30.15,SW,222,4.0,4.1,85,0.00,CLR,BKN,0.01,0.0,WeatherDisplay:10.37,2013-02-25 06:45:00,
2013-02-25 00:50:00,12.4,8.7,30.15,SW,223,4.6,4.6,85,0.00,CLR,BKN,0.01,0.0,WeatherDisplay:10.37,2013-02-25 06:50:00,
2013-02-25 00:55:00,12.3,8.7,30.15,SW,223,4.6,4.6,85,0.00,CLR,BKN,0.01,0.0,WeatherDisplay:10.37,2013-02-25 06:55:00,
2013-02-25 01:00:00,12.3,8.7,30.15,SW,223,4.0,4.0,85,0.00,CLR,BKN,0.01,0.0,WeatherDisplay:10.37,2013-02-25 07:00:00,
2013-02-25 01:05:00,12.1,8.5,30.15,SW,223,5.0,5.0,85,0.00,CLR,BKN,0.01,0.0,WeatherDisplay:10.37,2013-02-25 07:05:00,
2013-02-25 01:11:00,11.9,8.0,30.15,SW,223,5.8,5.8,84,0.00,CLR,BKN,0.01,0.0,WeatherDisplay:10.37,2013-02-25 07:11:00,
2013-02-25 01:16:00,11.9,8.0,30.16,SW,223,5.8,5.8,84,0.00,CLR,BKN,0.01,0.0,WeatherDisplay:10.37,2013-02-25 07:16:00,
2013-02-25 01:21:00,11.7,7.8,30.16,SW,223,4.6,4.6,84,0.00,CLR,BKN,0.01,0.0,WeatherDisplay:10.37,2013-02-25 07:21:00,
2013-02-25 01:26:00,11.6,7.7,30.16,SW,222,4.6,4.6,84,0.00,CLR,BKN,0.01,0.0,WeatherDisplay:10.37,2013-02-25 07:26:00,
2013-02-25 01:31:00,11.4,7.5,30.16,SW,223,3.5,3.5,84,0.00,CLR,BKN,0.01,0.0,WeatherDisplay:10.37,2013-02-25 07:31:00,
2013-02-25 01:36:00,11.2,7.3,30.16,SW,223,3.5,3.5,84,0.00,CLR,BKN,0.01,0.0,WeatherDisplay:10.37,2013-02-25 07:36:00,
2013-02-25 01:41:00,11.1,7.2,30.16,SW,222,3.5,3.5,84,0.00,CLR,BKN,0.01,0.0,WeatherDisplay:10.37,2013-02-25 07:41:00,
2013-02-25 01:46:00,10.9,6.8,30.16,SW,223,3.5,3.5,83,0.00,CLR,BKN,0.01,0.0,WeatherDisplay:10.37,2013-02-25 07:46:00,
2013-02-25 01:52:00,10.7,6.6,30.16,SW,223,3.5,3.5,83,0.00,CLR,BKN,0.01,0.0,WeatherDisplay:10.37,2013-02-25 07:52:00,
2013-02-25 01:57:00,10.5,6.4,30.16,SW,223,3.5,3.5,83,0.00,CLR,BKN,0.01,0.0,WeatherDisplay:10.37,2013-02-25 07:57:00,
2013-02-25 02:02:00,10.5,6.4,30.16,SW,223,2.3,2.3,83,0.00,CLR,BKN,0.01,0.0,WeatherDisplay:10.37,2013-02-25 08:02:00,
2013-02-25 02:07:00,10.4,6.0,30.16,SW,223,2.3,2.3,82,0.00,CLR,BKN,0.01,0.0,WeatherDisplay:10.37,2013-02-25 08:07:00,
2013-02-25 02:12:00,10.2,5.8,30.16,SW,223,2.3,2.3,82,0.00,CLR,BKN,0.01,0.0,WeatherDisplay:10.37,2013-02-25 08:12:00,
2013-02-25 02:17:00,10.0,5.6,30.16,SW,223,2.3,2.3,82,0.00,CLR,BKN,0.01,0.0,WeatherDisplay:10.37,2013-02-25 08:17:00,
2013-02-25 02:22:00,9.9,5.5,30.16,SW,223,2.3,2.3,82,0.00,CLR,BKN,0.01,0.0,WeatherDisplay:10.37,2013-02-25 08:22:00,
2013-02-25 02:28:00,9.7,5.3,30.15,SW,223,2.3,2.3,82,0.00,CLR,BKN,0.01,0.0,WeatherDisplay:10.37,2013-02-25 08:28:00,
2013-02-25 02:33:00,9.5,5.1,30.15,SW,223,2.3,2.3,82,0.00,CLR,BKN,0.01,0.0,WeatherDisplay:10.37,2013-02-25 08:33:00,
2013-02-25 02:38:00,9.3,4.9,30.15,SW,223,2.3,2.3,82,0.00,CLR,BKN,0.01,0.0,WeatherDisplay:10.37,2013-02-25 08:38:00,
2013-02-25 02:43:00,9.3,4.9,30.15,SW,222,2.3,2.3,82,0.00,CLR,BKN,0.01,0.0,WeatherDisplay:10.37,2013-02-25 08:43:00,
2013-02-25 02:48:00,9.2,4.8,30.15,SW,223,2.3,2.3,82,0.00,CLR,BKN,0.01,0.0,WeatherDisplay:10.37,2013-02-25 08:48:00,
2013-02-25 02:53:00,9.0,4.6,30.15,SW,223,2.3,2.3,82,0.00,CLR,BKN,0.01,0.0,WeatherDisplay:10.37,2013-02-25 08:53:00,
2013-02-25 02:58:00,8.8,4.2,30.15,SW,223,3.5,3.5,81,0.00,CLR,BKN,0.01,0.0,WeatherDisplay:10.37,2013-02-25 08:58:00,
2013-02-25 03:03:00,8.6,4.0,30.15,SW,223,2.3,2.3,81,0.00,CLR,BKN,0.01,0.0,WeatherDisplay:10.37,2013-02-25 09:03:00,
2013-02-25 03:09:00,8.6,4.0,30.15,SW,223,3.5,3.5,81,0.00,CLR,BKN,0.01,0.0,WeatherDisplay:10.37,2013-02-25 09:09:00,
2013-02-25 03:14:00,8.4,3.8,30.15,SW,223,3.5,3.5,81,0.00,CLR,BKN,0.01,0.0,WeatherDisplay:10.37,2013-02-25 09:14:00,
2013-02-25 03:19:00,8.3,3.7,30.15,SW,223,3.5,3.5,81,0.00,CLR,BKN,0.01,0.0,WeatherDisplay:10.37,2013-02-25 09:19:00,
2013-02-25 03:24:00,8.1,3.5,30.15,SW,223,3.5,3.5,81,0.00,CLR,BKN,0.01,0.0,WeatherDisplay:10.37,2013-02-25 09:24:00,
2013-02-25 03:29:00,7.9,3.3,30.15,SW,223,3.5,3.5,81,0.00,CLR,BKN,0.01,0.0,WeatherDisplay:10.37,2013-02-25 09:29:00,
2013-02-25 03:34:00,7.7,3.1,30.15,SW,223,3.5,3.5,81,0.00,CLR,BKN,0.01,0.0,WeatherDisplay:10.37,2013-02-25 09:34:00,
2013-02-25 03:39:00,7.7,3.1,30.15,SW,223,2.3,2.3,81,0.00,CLR,BKN,0.01,0.0,WeatherDisplay:10.37,2013-02-25 09:39:00,
2013-02-25 03:45:00,7.6,3.0,30.15,SW,223,2.3,2.3,81,0.00,CLR,BKN,0.01,0.0,WeatherDisplay:10.37,2013-02-25 09:45:00,
2013-02-25 03:50:00,7.4,2.8,30.15,SW,223,2.0,3.0,81,0.00,CLR,BKN,0.01,0.0,WeatherDisplay:10.37,2013-02-25 09:50:00,
2013-02-25 03:55:00,7.2,2.6,30.15,SW,223,3.5,3.5,81,0.00,CLR,BKN,0.01,0.0,WeatherDisplay:10.37,2013-02-25 09:55:00,
2013-02-25 04:00:00,7.0,2.1,30.15,SW,223,3.5,3.6,80,0.00,CLR,BKN,0.01,0.0,WeatherDisplay:10.37,2013-02-25 10:00:00,
2013-02-25 04:05:00,7.0,2.1,30.15,SW,223,4.6,4.6,80,0.00,CLR,BKN,0.01,0.0,WeatherDisplay:10.37,2013-02-25 10:05:00,
2013-02-25 04:10:00,6.9,2.0,30.15,SW,223,4.0,4.0,80,0.00,CLR,BKN,0.01,0.0,WeatherDisplay:10.37,2013-02-25 10:10:00,
2013-02-25 04:15:00,6.7,1.8,30.15,SW,223,4.0,4.0,80,0.00,CLR,BKN,0.01,0.0,WeatherDisplay:10.37,2013-02-25 10:15:00,
2013-02-25 04:20:00,6.5,1.6,30.14,SW,223,4.0,4.0,80,0.00,CLR,BKN,0.01,0.0,WeatherDisplay:10.37,2013-02-25 10:20:00,
2013-02-25 04:25:00,6.3,1.4,30.14,SW,223,3.5,3.5,80,0.00,CLR,BKN,0.01,0.0,WeatherDisplay:10.37,2013-02-25 10:25:00,
2013-02-25 04:30:00,6.3,1.4,30.14,SW,222,3.5,3.5,80,0.00,CLR,BKN,0.01,0.0,WeatherDisplay:10.37,2013-02-25 10:30:00,
2013-02-25 04:36:00,6.1,1.3,30.15,SW,223,3.5,3.5,80,0.00,CLR,BKN,0.01,0.0,WeatherDisplay:10.37,2013-02-25 10:36:00,
2013-02-25 04:41:00,6.0,1.2,30.15,SW,223,3.5,3.5,80,0.00,CLR,BKN,0.01,0.0,WeatherDisplay:10.37,2013-02-25 10:41:00,
2013-02-25 04:46:00,5.8,1.0,30.15,SW,223,3.5,3.5,80,0.00,CLR,BKN,0.01,0.0,WeatherDisplay:10.37,2013-02-25 10:46:00,
2013-02-25 04:51:00,5.8,1.0,30.15,SW,223,3.5,3.5,80,0.00,CLR,BKN,0.01,0.0,WeatherDisplay:10.37,2013-02-25 10:51:00,
2013-02-25 04:56:00,5.6,0.8,30.15,SW,223,3.5,3.5,80,0.00,CLR,BKN,0.01,0.0,WeatherDisplay:10.37,2013-02-25 10:56:00,
2013-02-25 05:01:00,5.4,0.6,30.15,SW,223,4.0,4.0,80,0.00,CLR,BKN,0.01,0.0,WeatherDisplay:10.37,2013-02-25 11:01:00,
2013-02-25 05:06:00,5.4,0.6,30.15,SW,222,4.0,4.0,80,0.00,CLR,BKN,0.01,0.0,WeatherDisplay:10.37,2013-02-25 11:06:00,
2013-02-25 05:12:00,5.2,0.4,30.15,SW,223,4.6,4.6,80,0.00,CLR,BKN,0.01,0.0,WeatherDisplay:10.37,2013-02-25 11:12:00,
2013-02-25 05:17:00,5.2,0.4,30.15,SW,223,5.0,5.0,80,0.00,CLR,BKN,0.01,0.0,WeatherDisplay:10.37,2013-02-25 11:17:00,
2013-02-25 05:22:00,5.0,0.2,30.15,SW,223,5.0,5.0,80,0.00,CLR,BKN,0.01,0.0,WeatherDisplay:10.37,2013-02-25 11:22:00,
2013-02-25 05:27:00,5.0,0.2,30.15,SW,223,3.5,3.5,80,0.00,CLR,BKN,0.01,0.0,WeatherDisplay:10.37,2013-02-25 11:27:00,
2013-02-25 05:32:00,4.8,0.0,30.15,SW,223,4.0,4.1,80,0.00,CLR,BKN,0.01,0.0,WeatherDisplay:10.37,2013-02-25 11:32:00,
2013-02-25 05:37:00,4.7,-0.1,30.16,SW,223,4.6,4.6,80,0.00,CLR,BKN,0.01,0.0,WeatherDisplay:10.37,2013-02-25 11:37:00,
2013-02-25 05:42:00,4.7,-0.1,30.16,SW,223,4.6,4.6,80,0.00,CLR,BKN,0.01,0.0,WeatherDisplay:10.37,2013-02-25 11:42:00,
2013-02-25 05:47:00,4.5,-0.3,30.15,SW,223,4.0,4.0,80,0.00,CLR,BKN,0.01,0.0,WeatherDisplay:10.37,2013-02-25 11:47:00,
2013-02-25 05:53:00,4.5,-0.3,30.15,West,266,3.5,3.5,80,0.00,CLR,BKN,0.01,0.0,WeatherDisplay:10.37,2013-02-25 11:53:00,
2013-02-25 05:58:00,4.5,-0.3,30.16,SW,222,3.5,3.5,80,0.00,CLR,BKN,0.01,0.0,WeatherDisplay:10.37,2013-02-25 11:58:00,
2013-02-25 06:03:00,4.3,-0.5,30.16,SW,223,3.5,3.5,80,0.00,CLR,BKN,0.01,0.0,WeatherDisplay:10.37,2013-02-25 12:03:00,
2013-02-25 06:08:00,4.3,-0.5,30.16,SW,223,3.5,3.5,80,0.00,CLR,BKN,0.01,0.0,WeatherDisplay:10.37,2013-02-25 12:08:00,
2013-02-25 06:13:00,4.3,-0.5,30.16,SW,223,3.5,3.5,80,0.00,CLR,BKN,0.01,0.0,WeatherDisplay:10.37,2013-02-25 12:13:00,
2013-02-25 06:18:00,4.1,-0.4,30.16,SW,222,3.5,3.5,81,0.00,CLR,BKN,0.01,0.0,WeatherDisplay:10.37,2013-02-25 12:18:00,
2013-02-25 06:23:00,4.1,-0.4,30.16,SW,222,2.3,2.3,81,0.00,CLR,BKN,0.01,0.0,WeatherDisplay:10.37,2013-02-25 12:23:00,
2013-02-25 06:29:00,4.1,-0.4,30.17,SW,223,2.3,2.3,81,0.00,CLR,BKN,0.01,0.0,WeatherDisplay:10.37,2013-02-25 12:29:00,
2013-02-25 06:34:00,4.1,-0.4,30.16,SW,223,2.3,2.3,81,0.00,CLR,BKN,0.01,0.0,WeatherDisplay:10.37,2013-02-25 12:34:00,
2013-02-25 06:39:00,4.1,-0.4,30.16,SW,223,2.3,2.3,81,0.00,CLR,BKN,0.01,0.0,WeatherDisplay:10.37,2013-02-25 12:39:00,
2013-02-25 06:44:00,4.1,-0.4,30.17,SW,223,2.3,2.3,81,0.00,CLR,BKN,0.01,0.0,WeatherDisplay:10.37,2013-02-25 12:44:00,
2013-02-25 06:49:00,4.1,-0.4,30.17,SW,223,2.3,2.3,81,0.00,CLR,BKN,0.01,0.0,WeatherDisplay:10.37,2013-02-25 12:49:00,
2013-02-25 06:54:00,3.9,-0.6,30.17,SW,223,3.5,3.5,81,0.00,CLR,BKN,0.01,0.0,WeatherDisplay:10.37,2013-02-25 12:54:00,
2013-02-25 06:59:00,3.9,-0.6,30.17,SW,223,4.0,4.0,81,0.00,CLR,BKN,0.01,0.0,WeatherDisplay:10.37,2013-02-25 12:59:00,
2013-02-25 07:04:00,3.9,-0.6,30.17,SW,222,3.5,3.5,81,0.00,RA,BKN,0.00,0.0,WeatherDisplay:10.37,2013-02-25 13:04:00,
2013-02-25 07:10:00,3.9,-0.9,30.17,SW,223,3.0,4.0,80,0.00,CLR,BKN,0.00,0.0,WeatherDisplay:10.37,2013-02-25 13:10:00,
2013-02-25 07:15:00,3.7,-1.1,30.17,SW,223,3.5,3.5,80,0.00,CLR,BKN,0.00,0.0,WeatherDisplay:10.37,2013-02-25 13:15:00,
2013-02-25 07:20:00,3.7,-1.1,30.18,SW,223,3.5,3.5,80,0.00,CLR,BKN,0.00,0.0,WeatherDisplay:10.37,2013-02-25 13:20:00,
2013-02-25 07:25:00,3.7,-0.8,30.18,SW,223,3.5,3.5,81,0.00,CLR,BKN,0.00,0.0,WeatherDisplay:10.37,2013-02-25 13:25:00,
2013-02-25 07:30:00,3.7,-0.8,30.18,SW,222,3.5,3.5,81,0.00,CLR,BKN,0.00,0.0,WeatherDisplay:10.37,2013-02-25 13:30:00,
2013-02-25 07:35:00,3.9,-0.6,30.18,SW,223,3.5,3.5,81,0.00,CLR,BKN,0.00,0.0,WeatherDisplay:10.37,2013-02-25 13:35:00,
2013-02-25 07:40:00,3.9,-0.4,30.18,SW,222,3.5,3.5,82,0.00,CLR,BKN,0.00,0.0,WeatherDisplay:10.37,2013-02-25 13:40:00,
2013-02-25 07:45:00,4.1,-0.2,30.19,SW,223,4.0,4.0,82,0.00,CLR,BKN,0.00,0.0,WeatherDisplay:10.37,2013-02-25 13:45:00,
2013-02-25 07:50:00,4.3,0.3,30.19,SW,223,4.6,4.6,83,0.00,CLR,BKN,0.00,0.0,WeatherDisplay:10.37,2013-02-25 13:50:00,
2013-02-25 07:56:00,4.5,0.7,30.19,SW,223,3.5,3.5,84,0.00,CLR,BKN,0.00,0.0,WeatherDisplay:10.37,2013-02-25 13:56:00,
2013-02-25 08:01:00,4.7,0.9,30.19,SW,223,3.5,3.6,84,0.00,OVC,BKN,0.00,0.0,WeatherDisplay:10.37,2013-02-25 14:01:00,
2013-02-25 08:06:00,5.2,1.7,30.19,SW,223,3.5,3.5,85,0.00,OVC,BKN,0.00,0.0,WeatherDisplay:10.37,2013-02-25 14:06:00,
2013-02-25 08:11:00,5.6,2.3,30.19,SW,222,3.5,3.5,86,0.00,OVC,BKN,0.00,0.0,WeatherDisplay:10.37,2013-02-25 14:11:00,
2013-02-25 08:17:00,6.1,3.1,30.19,SW,223,3.5,3.5,87,0.00,OVC,BKN,0.00,0.0,WeatherDisplay:10.37,2013-02-25 14:17:00,
2013-02-25 08:21:00,6.7,3.9,30.19,SW,223,3.5,3.5,88,0.00,OVC,BKN,0.00,0.0,WeatherDisplay:10.37,2013-02-25 14:21:00,
2013-02-25 08:27:00,7.6,4.8,30.19,SW,223,3.5,3.5,88,0.00,OVC,BKN,0.00,0.0,WeatherDisplay:10.37,2013-02-25 14:27:00,
2013-02-25 08:32:00,8.1,5.5,30.19,SW,223,3.5,3.5,89,0.00,OVC,BKN,0.00,0.0,WeatherDisplay:10.37,2013-02-25 14:32:00,
2013-02-25 08:37:00,8.8,6.2,30.19,SW,222,3.5,3.5,89,0.00,OVC,BKN,0.00,0.0,WeatherDisplay:10.37,2013-02-25 14:37:00,
2013-02-25 08:42:00,9.5,6.9,30.19,SW,223,3.5,3.5,89,0.00,OVC,BKN,0.00,0.0,WeatherDisplay:10.37,2013-02-25 14:42:00,
2013-02-25 08:47:00,10.5,8.1,30.18,SW,222,2.3,2.3,90,0.00,OVC,BKN,0.00,0.0,WeatherDisplay:10.37,2013-02-25 14:47:00,
2013-02-25 08:52:00,11.4,9.0,30.18,SW,223,2.3,2.3,90,0.00,OVC,BKN,0.00,0.0,WeatherDisplay:10.37,2013-02-25 14:52:00,
2013-02-25 08:57:00,12.8,10.7,30.18,SW,222,1.0,1.0,91,0.00,OVC,BKN,0.00,0.0,WeatherDisplay:10.37,2013-02-25 14:57:00,
2013-02-25 09:03:00,18.0,16.6,30.18,SW,222,3.5,3.5,94,0.00,OVC,BKN,0.00,0.0,WeatherDisplay:10.37,2013-02-25 15:03:00,
2013-02-25 09:08:00,20.0,18.1,30.18,SW,223,2.3,2.3,92,0.00,OVC,BKN,0.00,0.0,WeatherDisplay:10.37,2013-02-25 15:08:00,
2013-02-25 09:13:00,21.1,18.9,30.18,SW,223,3.5,3.5,91,0.00,OVC,BKN,0.00,0.0,WeatherDisplay:10.37,2013-02-25 15:13:00,
2013-02-25 09:18:00,21.9,19.4,30.18,SW,223,3.0,3.0,90,0.00,OVC,BKN,0.00,0.0,WeatherDisplay:10.37,2013-02-25 15:18:00,
2013-02-25 09:23:00,22.5,20.0,30.18,SW,222,3.5,3.5,90,0.00,OVC,BKN,0.00,0.0,WeatherDisplay:10.37,2013-02-25 15:23:00,
2013-02-25 09:28:00,22.9,20.1,30.18,SW,223,2.3,2.3,89,0.00,OVC,BKN,0.00,0.0,WeatherDisplay:10.37,2013-02-25 15:28:00,
2013-02-25 09:33:00,23.0,20.0,30.18,SW,223,3.5,3.5,88,0.00,OVC,BKN,0.00,0.0,WeatherDisplay:10.37,2013-02-25 15:33:00,
2013-02-25 09:38:00,23.5,20.5,30.18,SW,223,2.3,2.3,88,0.00,OVC,BKN,0.00,0.0,WeatherDisplay:10.37,2013-02-25 15:38:00,
2013-02-25 09:44:00,23.9,20.9,30.17,SW,223,3.5,3.5,88,0.00,OVC,BKN,0.00,0.0,WeatherDisplay:10.37,2013-02-25 15:44:00,
2013-02-25 09:49:00,24.5,21.5,30.17,SW,222,3.5,3.5,88,0.00,OVC,BKN,0.00,0.0,WeatherDisplay:10.37,2013-02-25 15:49:00,
2013-02-25 09:54:00,25.0,21.9,30.17,SW,223,1.1,1.1,88,0.00,OVC,BKN,0.00,0.0,WeatherDisplay:10.37,2013-02-25 15:54:00,
2013-02-25 09:59:00,25.6,22.0,30.18,SW,223,0.0,0.0,86,0.00,OVC,BKN,0.00,0.0,WeatherDisplay:10.37,2013-02-25 15:59:00,
2013-02-25 10:04:00,25.6,22.0,30.17,SW,222,0.0,0.0,86,0.00,OVC,BKN,0.00,0.0,WeatherDisplay:10.37,2013-02-25 16:04:00,
2013-02-25 10:09:00,25.4,21.8,30.17,SW,223,3.0,3.0,86,0.00,OVC,BKN,0.00,0.0,WeatherDisplay:10.37,2013-02-25 16:09:00,
2013-02-25 10:14:00,25.4,21.8,30.18,SW,223,2.0,2.0,86,0.00,OVC,BKN,0.00,0.0,WeatherDisplay:10.37,2013-02-25 16:14:00,
2013-02-25 10:20:00,25.7,22.1,30.18,SW,223,1.0,4.0,86,0.00,OVC,BKN,0.00,0.0,WeatherDisplay:10.37,2013-02-25 16:20:00,
2013-02-25 10:25:00,26.1,22.5,30.18,SW,223,3.5,3.5,86,0.00,OVC,BKN,0.00,0.0,WeatherDisplay:10.37,2013-02-25 16:25:00,
2013-02-25 10:30:00,26.3,22.4,30.18,SW,223,3.5,3.5,85,0.00,OVC,BKN,0.00,0.0,WeatherDisplay:10.37,2013-02-25 16:30:00,
2013-02-25 10:35:00,26.3,22.4,30.18,SW,223,3.5,3.5,85,0.00,OVC,BKN,0.00,0.0,WeatherDisplay:10.37,2013-02-25 16:35:00,
2013-02-25 10:40:00,26.4,22.5,30.18,SW,223,1.1,1.1,85,0.00,OVC,BKN,0.00,0.0,WeatherDisplay:10.37,2013-02-25 16:40:00,
2013-02-25 10:45:00,26.6,22.7,30.18,SW,223,4.0,4.0,85,0.00,OVC,BKN,0.00,0.0,WeatherDisplay:10.37,2013-02-25 16:45:00,
2013-02-25 10:50:00,26.9,22.7,30.18,SW,223,3.5,3.5,84,0.00,OVC,BKN,0.00,0.0,WeatherDisplay:10.37,2013-02-25 16:50:00,
2013-02-25 10:55:00,27.3,23.1,30.18,SW,222,5.8,6.3,84,0.00,OVC,BKN,0.00,0.0,WeatherDisplay:10.37,2013-02-25 16:55:00,
2013-02-25 11:01:00,27.5,23.0,30.18,SW,222,4.6,4.6,83,0.00,OVC,BKN,0.00,0.0,WeatherDisplay:10.37,2013-02-25 17:01:00,
2013-02-25 11:06:00,27.8,22.7,30.18,SW,222,4.6,4.6,81,0.00,OVC,BKN,0.00,0.0,WeatherDisplay:10.37,2013-02-25 17:06:00,
2013-02-25 11:11:00,27.9,22.8,30.18,SW,222,5.8,5.8,81,0.00,OVC,BKN,0.00,0.0,WeatherDisplay:10.37,2013-02-25 17:11:00,
2013-02-25 11:16:00,27.8,23.0,30.18,SW,223,4.6,4.6,82,0.00,OVC,BKN,0.00,0.0,WeatherDisplay:10.37,2013-02-25 17:16:00,
2013-02-25 11:21:00,27.9,23.1,30.18,SW,223,3.5,3.5,82,0.00,OVC,BKN,0.00,0.0,WeatherDisplay:10.37,2013-02-25 17:21:00,
2013-02-25 11:26:00,28.2,23.1,30.18,SW,223,6.9,6.9,81,0.00,OVC,BKN,0.00,0.0,WeatherDisplay:10.37,2013-02-25 17:26:00,
2013-02-25 11:31:00,28.2,23.1,30.18,SW,221,8.1,8.1,81,0.00,OVC,BKN,0.00,0.0,WeatherDisplay:10.37,2013-02-25 17:31:00,
2013-02-25 11:37:00,28.4,23.3,30.18,SSW,212,5.8,5.8,81,0.00,OVC,BKN,0.00,0.0,WeatherDisplay:10.37,2013-02-25 17:37:00,
2013-02-25 11:42:00,28.4,23.6,30.17,SSW,212,4.6,4.6,82,0.00,OVC,BKN,0.00,0.0,WeatherDisplay:10.37,2013-02-25 17:42:00,
2013-02-25 11:47:00,28.4,23.3,30.17,SSW,210,5.8,5.8,81,0.00,OVC,BKN,0.00,0.0,WeatherDisplay:10.37,2013-02-25 17:47:00,
2013-02-25 11:52:00,28.5,23.4,30.17,SSW,210,3.5,3.5,81,0.00,OVC,BKN,0.00,0.0,WeatherDisplay:10.37,2013-02-25 17:52:00,
2013-02-25 11:57:00,28.8,24.0,30.17,SSW,210,5.0,5.0,82,0.00,OVC,BKN,0.00,0.0,WeatherDisplay:10.37,2013-02-25 17:57:00,
2013-02-25 12:02:00,29.0,23.9,30.17,SSW,210,2.3,2.3,81,0.00,OVC,BKN,0.00,0.0,WeatherDisplay:10.37,2013-02-25 18:02:00,
2013-02-25 12:07:00,28.8,23.7,30.17,SSW,210,5.8,5.8,81,0.00,OVC,BKN,0.00,0.0,WeatherDisplay:10.37,2013-02-25 18:07:00,
2013-02-25 12:12:00,29.0,23.9,30.17,SSW,210,3.5,3.5,81,0.00,OVC,BKN,0.00,0.0,WeatherDisplay:10.37,2013-02-25 18:12:00,
2013-02-25 12:18:00,29.3,24.2,30.17,SSW,210,7.0,7.0,81,0.00,OVC,BKN,0.00,0.0,WeatherDisplay:10.37,2013-02-25 18:18:00,
2013-02-25 12:23:00,29.1,23.7,30.17,SSW,210,8.1,8.1,80,0.00,OVC,BKN,0.00,0.0,WeatherDisplay:10.37,2013-02-25 18:23:00,
2013-02-25 12:28:00,29.3,24.2,30.17,SSW,210,6.9,6.9,81,0.00,OVC,BKN,0.00,0.0,WeatherDisplay:10.37,2013-02-25 18:28:00,
2013-02-25 12:33:00,29.4,24.0,30.16,SSW,210,3.5,3.5,80,0.00,OVC,BKN,0.00,0.0,WeatherDisplay:10.37,2013-02-25 18:33:00,
2013-02-25 12:38:00,29.5,24.1,30.16,SSW,210,7.0,7.0,80,0.00,OVC,BKN,0.00,0.0,WeatherDisplay:10.37,2013-02-25 18:38:00,
2013-02-25 12:43:00,29.8,24.7,30.16,SSW,208,5.8,5.8,81,0.00,OVC,BKN,0.00,0.0,WeatherDisplay:10.37,2013-02-25 18:43:00,
2013-02-25 12:48:00,30.0,24.6,30.16,SSW,203,8.1,8.1,80,0.00,OVC,BKN,0.00,0.0,WeatherDisplay:10.37,2013-02-25 18:48:00,
2013-02-25 12:54:00,29.8,25.0,30.16,SSW,210,6.9,6.9,82,0.00,OVC,BKN,0.00,0.0,WeatherDisplay:10.37,2013-02-25 18:54:00,
2013-02-25 12:59:00,29.8,24.7,30.15,SSW,210,4.6,4.6,81,0.00,OVC,BKN,0.00,0.0,WeatherDisplay:10.37,2013-02-25 18:59:00,
2013-02-25 13:04:00,30.0,24.6,30.15,SSW,207,7.0,7.0,80,0.00,OVC,BKN,0.00,0.0,WeatherDisplay:10.37,2013-02-25 19:04:00,
2013-02-25 13:09:00,30.0,24.6,30.15,SW,215,8.1,8.1,80,0.00,OVC,BKN,0.00,0.0,WeatherDisplay:10.37,2013-02-25 19:09:00,
2013-02-25 13:14:00,30.1,24.4,30.15,SSW,210,6.9,6.9,79,0.00,OVC,BKN,0.00,0.0,WeatherDisplay:10.37,2013-02-25 19:14:00,
2013-02-25 13:19:00,30.1,24.7,30.15,SSW,208,10.4,10.4,80,0.00,OVC,BKN,0.00,0.0,WeatherDisplay:10.37,2013-02-25 19:19:00,
2013-02-25 13:24:00,30.3,25.2,30.15,SW,219,8.1,8.1,81,0.00,OVC,BKN,0.00,0.0,WeatherDisplay:10.37,2013-02-25 19:24:00,
2013-02-25 13:29:00,30.1,25.3,30.15,SW,219,5.0,5.0,82,0.00,OVC,BKN,0.00,0.0,WeatherDisplay:10.37,2013-02-25 19:29:00,
2013-02-25 13:35:00,30.3,25.2,30.14,SW,222,5.8,5.8,81,0.00,OVC,BKN,0.00,0.0,WeatherDisplay:10.37,2013-02-25 19:35:00,
2013-02-25 13:40:00,30.4,25.3,30.14,SSW,201,9.2,9.2,81,0.00,OVC,BKN,0.00,0.0,WeatherDisplay:10.37,2013-02-25 19:40:00,
2013-02-25 13:45:00,30.6,25.2,30.14,South,190,7.0,7.0,80,0.00,OVC,BKN,0.00,0.0,WeatherDisplay:10.37,2013-02-25 19:45:00,
2013-02-25 13:50:00,30.4,25.3,30.14,South,188,9.2,9.2,81,0.00,OVC,BKN,0.00,0.0,WeatherDisplay:10.37,2013-02-25 19:50:00,
2013-02-25 13:55:00,30.7,25.6,30.14,SSW,194,10.4,10.4,81,0.00,OVC,BKN,0.00,0.0,WeatherDisplay:10.37,2013-02-25 19:55:00,
2013-02-25 14:00:00,30.7,25.3,30.13,SSW,194,10.4,10.4,80,0.00,OVC,BKN,0.00,0.0,WeatherDisplay:10.37,2013-02-25 20:00:00,
2013-02-25 14:05:00,30.6,25.5,30.13,South,187,8.1,8.1,81,0.00,OVC,BKN,0.00,0.0,WeatherDisplay:10.37,2013-02-25 20:05:00,
2013-02-25 14:11:00,30.6,25.2,30.13,South,183,10.4,10.4,80,0.00,OVC,BKN,0.00,0.0,WeatherDisplay:10.37,2013-02-25 20:11:00,
2013-02-25 14:16:00,30.9,25.5,30.13,South,173,5.8,5.8,80,0.00,OVC,BKN,0.00,0.0,WeatherDisplay:10.37,2013-02-25 20:16:00,
2013-02-25 14:21:00,31.2,25.7,30.14,South,183,10.4,10.4,80,0.00,OVC,BKN,0.00,0.0,WeatherDisplay:10.37,2013-02-25 20:21:00,
2013-02-25 14:26:00,31.0,25.6,30.14,South,190,9.0,9.0,80,0.00,OVC,BKN,0.00,0.0,WeatherDisplay:10.37,2013-02-25 20:26:00,
2013-02-25 14:31:00,30.7,25.3,30.13,South,190,10.4,10.4,80,0.00,OVC,BKN,0.00,0.0,WeatherDisplay:10.37,2013-02-25 20:31:00,
2013-02-25 14:36:00,30.6,25.2,30.13,SSW,198,10.4,10.4,80,0.00,OVC,BKN,0.00,0.0,WeatherDisplay:10.37,2013-02-25 20:36:00,
2013-02-25 14:41:00,30.7,25.6,30.14,SSW,198,8.0,8.0,81,0.00,OVC,BKN,0.00,0.0,WeatherDisplay:10.37,2013-02-25 20:41:00,
2013-02-25 14:46:00,30.6,25.2,30.13,SSW,195,8.1,8.1,80,0.00,OVC,BKN,0.00,0.0,WeatherDisplay:10.37,2013-02-25 20:46:00,
2013-02-25 14:52:00,30.7,25.3,30.13,SSW,192,8.1,8.1,80,0.00,OVC,BKN,0.00,0.0,WeatherDisplay:10.37,2013-02-25 20:52:00,
2013-02-25 14:57:00,30.9,25.5,30.13,South,175,9.2,9.2,80,0.00,OVC,BKN,0.00,0.0,WeatherDisplay:10.37,2013-02-25 20:57:00,
2013-02-25 15:02:00,30.9,25.5,30.13,South,177,5.8,5.8,80,0.00,OVC,BKN,0.00,0.0,WeatherDisplay:10.37,2013-02-25 21:02:00,
2013-02-25 15:07:00,30.9,25.5,30.13,South,183,2.0,2.0,80,0.00,OVC,BKN,0.00,0.0,WeatherDisplay:10.37,2013-02-25 21:07:00,
2013-02-25 15:12:00,30.9,25.5,30.13,South,190,6.9,6.9,80,0.00,OVC,BKN,0.00,0.0,WeatherDisplay:10.37,2013-02-25 21:12:00,
2013-02-25 15:17:00,31.0,25.2,30.12,SSW,192,6.9,6.9,79,0.00,OVC,BKN,0.00,0.0,WeatherDisplay:10.37,2013-02-25 21:17:00,
2013-02-25 15:23:00,31.3,25.8,30.12,South,187,8.0,8.0,80,0.00,OVC,BKN,0.00,0.0,WeatherDisplay:10.37,2013-02-25 21:23:00,
2013-02-25 15:28:00,31.2,25.7,30.13,South,180,8.1,8.1,80,0.00,OVC,BKN,0.00,0.0,WeatherDisplay:10.37,2013-02-25 21:28:00,
2013-02-25 15:33:00,31.0,25.6,30.13,South,185,4.6,4.6,80,0.00,OVC,BKN,0.00,0.0,WeatherDisplay:10.37,2013-02-25 21:33:00,
2013-02-25 15:38:00,31.0,25.9,30.13,South,189,5.0,5.0,81,0.00,OVC,BKN,0.00,0.0,WeatherDisplay:10.37,2013-02-25 21:38:00,
2013-02-25 15:43:00,31.0,25.9,30.13,SSW,194,6.9,6.9,81,0.00,OVC,BKN,0.00,0.0,WeatherDisplay:10.37,2013-02-25 21:43:00,
2013-02-25 15:48:00,30.9,25.8,30.13,SW,225,5.8,6.2,81,0.00,OVC,BKN,0.00,0.0,WeatherDisplay:10.37,2013-02-25 21:48:00,
2013-02-25 15:53:00,30.6,26.1,30.13,SW,230,8.1,8.1,83,0.00,OVC,BKN,0.00,0.0,WeatherDisplay:10.37,2013-02-25 21:53:00,
2013-02-25 15:59:00,30.4,26.1,30.13,SW,230,6.0,6.0,84,0.01,RA,BKN,0.01,0.0,WeatherDisplay:10.37,2013-02-25 21:59:00,
2013-02-25 16:04:00,30.4,25.9,30.13,SW,235,4.6,4.6,83,0.01,RA,BKN,0.01,0.0,WeatherDisplay:10.37,2013-02-25 22:04:00,
2013-02-25 16:09:00,30.6,25.8,30.13,SW,224,3.5,3.5,82,0.01,CLR,BKN,0.01,0.0,WeatherDisplay:10.37,2013-02-25 22:09:00,
2013-02-25 16:14:00,30.7,26.1,30.13,SSW,198,10.4,10.4,83,0.01,CLR,BKN,0.01,0.0,WeatherDisplay:10.37,2013-02-25 22:14:00,
2013-02-25 16:19:00,30.9,26.3,30.12,SSW,208,5.8,5.8,83,0.01,CLR,BKN,0.01,0.0,WeatherDisplay:10.37,2013-02-25 22:19:00,
2013-02-25 16:24:00,30.9,26.1,30.13,SW,232,6.9,6.9,82,0.01,CLR,BKN,0.01,0.0,WeatherDisplay:10.37,2013-02-25 22:24:00,
2013-02-25 16:29:00,31.0,26.1,30.13,SW,229,7.0,7.0,82,0.01,CLR,BKN,0.01,0.0,WeatherDisplay:10.37,2013-02-25 22:29:00,
2013-02-25 16:35:00,31.0,26.1,30.13,WSW,239,8.1,8.1,82,0.01,CLR,BKN,0.01,0.0,WeatherDisplay:10.37,2013-02-25 22:35:00,
2013-02-25 16:40:00,31.0,26.1,30.13,WSW,239,7.0,10.0,82,0.00,CLR,BKN,0.01,0.0,WeatherDisplay:10.37,2013-02-25 22:40:00,
2013-02-25 16:45:00,31.0,26.1,30.13,WSW,242,4.0,4.0,82,0.01,CLR,BKN,0.01,0.0,WeatherDisplay:10.37,2013-02-25 22:45:00,
2013-02-25 16:50:00,31.0,26.1,30.13,WSW,242,4.0,4.0,82,0.01,CLR,BKN,0.01,0.0,WeatherDisplay:10.37,2013-02-25 22:50:00,
2013-02-25 16:55:00,30.9,26.1,30.14,WSW,242,6.9,6.9,82,0.01,CLR,BKN,0.01,0.0,WeatherDisplay:10.37,2013-02-25 22:55:00,
2013-02-25 17:00:00,30.9,26.3,30.14,WSW,240,5.8,5.8,83,0.00,CLR,BKN,0.01,0.0,WeatherDisplay:10.37,2013-02-25 23:00:00,
2013-02-25 17:05:00,30.7,26.1,30.14,WSW,240,3.0,3.0,83,0.00,CLR,BKN,0.01,0.0,WeatherDisplay:10.37,2013-02-25 23:05:00,
2013-02-25 17:10:00,30.6,26.1,30.14,SW,218,8.1,8.1,83,0.00,CLR,BKN,0.01,0.0,WeatherDisplay:10.37,2013-02-25 23:10:00,
2013-02-25 17:15:00,30.6,25.8,30.14,SW,218,5.8,5.8,82,0.00,CLR,BKN,0.01,0.0,WeatherDisplay:10.37,2013-02-25 23:15:00,
2013-02-25 17:20:00,30.4,25.9,30.14,SW,218,6.0,6.0,83,0.00,CLR,BKN,0.01,0.0,WeatherDisplay:10.37,2013-02-25 23:20:00,
2013-02-25 17:26:00,30.3,25.8,30.15,SW,218,4.6,4.6,83,0.00,CLR,BKN,0.01,0.0,WeatherDisplay:10.37,2013-02-25 23:26:00,
2013-02-25 17:31:00,30.3,25.8,30.14,SW,218,4.0,4.0,83,0.00,CLR,BKN,0.01,0.0,WeatherDisplay:10.37,2013-02-25 23:31:00,
2013-02-25 17:36:00,30.1,25.8,30.14,SW,220,5.0,5.0,84,0.00,CLR,BKN,0.01,0.0,WeatherDisplay:10.37,2013-02-25 23:36:00,
2013-02-25 17:41:00,30.0,25.8,30.14,SSW,210,8.1,8.1,84,0.00,CLR,BKN,0.01,0.0,WeatherDisplay:10.37,2013-02-25 23:41:00,
2013-02-25 17:46:00,29.8,25.6,30.14,SSW,211,5.8,5.8,84,0.00,CLR,BKN,0.01,0.0,WeatherDisplay:10.37,2013-02-25 23:46:00,
2013-02-25 17:51:00,29.7,25.5,30.14,SSW,210,8.1,8.1,84,0.00,CLR,BKN,0.01,0.0,WeatherDisplay:10.37,2013-02-25 23:51:00,
2013-02-25 17:56:00,29.7,25.5,30.14,SSW,210,4.6,4.6,84,0.00,CLR,BKN,0.01,0.0,WeatherDisplay:10.37,2013-02-25 23:56:00,
2013-02-25 18:02:00,29.5,25.3,30.14,SSW,210,4.6,4.6,84,0.00,CLR,BKN,0.01,0.0,WeatherDisplay:10.37,2013-02-26 00:02:00,
2013-02-25 18:07:00,29.4,25.2,30.14,SSW,210,2.3,2.3,84,0.00,CLR,BKN,0.01,0.0,WeatherDisplay:10.37,2013-02-26 00:07:00,
2013-02-25 18:12:00,29.4,25.2,30.14,SSW,210,2.3,2.3,84,0.00,CLR,BKN,0.01,0.0,WeatherDisplay:10.37,2013-02-26 00:12:00,
2013-02-25 18:17:00,29.4,25.2,30.14,SSW,210,3.5,3.5,84,0.00,CLR,BKN,0.01,0.0,WeatherDisplay:10.37,2013-02-26 00:17:00,
2013-02-25 18:22:00,29.3,25.4,30.14,SSW,210,3.5,3.5,85,0.00,CLR,BKN,0.01,0.0,WeatherDisplay:10.37,2013-02-26 00:22:00,
2013-02-25 18:27:00,29.3,25.4,30.14,SSW,210,4.0,4.0,85,0.00,CLR,BKN,0.01,0.0,WeatherDisplay:10.37,2013-02-26 00:27:00,
2013-02-25 18:32:00,29.1,25.2,30.15,SSW,210,2.3,2.3,85,0.00,CLR,BKN,0.01,0.0,WeatherDisplay:10.37,2013-02-26 00:32:00,
2013-02-25 18:37:00,29.1,25.2,30.15,SSW,210,4.6,4.6,85,0.00,CLR,BKN,0.01,0.0,WeatherDisplay:10.37,2013-02-26 00:37:00,
2013-02-25 18:43:00,29.0,25.1,30.15,SSW,210,4.6,4.6,85,0.00,CLR,BKN,0.01,0.0,WeatherDisplay:10.37,2013-02-26 00:43:00,
2013-02-25 18:48:00,29.0,25.1,30.15,SSW,210,5.0,5.0,85,0.00,CLR,BKN,0.01,0.0,WeatherDisplay:10.37,2013-02-26 00:48:00,
2013-02-25 18:53:00,28.8,25.1,30.15,SSW,210,4.6,4.6,86,0.00,CLR,BKN,0.01,0.0,WeatherDisplay:10.37,2013-02-26 00:53:00,
2013-02-25 18:58:00,28.8,25.1,30.15,SSW,210,4.6,4.6,86,0.00,CLR,BKN,0.01,0.0,WeatherDisplay:10.37,2013-02-26 00:58:00,
2013-02-25 19:03:00,28.8,25.1,30.15,SSW,210,4.6,4.6,86,0.00,CLR,BKN,0.01,0.0,WeatherDisplay:10.37,2013-02-26 01:03:00,
2013-02-25 19:08:00,28.7,25.0,30.15,SSW,210,3.5,3.5,86,0.00,CLR,BKN,0.01,0.0,WeatherDisplay:10.37,2013-02-26 01:08:00,
2013-02-25 19:13:00,28.7,25.0,30.16,SSW,210,3.0,3.0,86,0.00,CLR,BKN,0.01,0.0,WeatherDisplay:10.37,2013-02-26 01:13:00,
2013-02-25 19:19:00,28.7,25.0,30.16,SSW,210,3.5,3.5,86,0.00,CLR,BKN,0.01,0.0,WeatherDisplay:10.37,2013-02-26 01:19:00,
2013-02-25 19:24:00,28.5,24.8,30.15,SSW,210,3.5,3.5,86,0.00,CLR,BKN,0.01,0.0,WeatherDisplay:10.37,2013-02-26 01:24:00,
2013-02-25 19:29:00,28.5,24.8,30.15,SSW,210,3.5,3.5,86,0.00,CLR,BKN,0.01,0.0,WeatherDisplay:10.37,2013-02-26 01:29:00,
2013-02-25 19:34:00,28.5,24.8,30.15,SSW,210,3.5,3.5,86,0.00,CLR,BKN,0.01,0.0,WeatherDisplay:10.37,2013-02-26 01:34:00,
2013-02-25 19:39:00,28.4,25.0,30.15,SSW,210,5.8,5.8,87,0.00,CLR,BKN,0.01,0.0,WeatherDisplay:10.37,2013-02-26 01:39:00,
2013-02-25 19:44:00,28.4,25.0,30.15,SSW,210,4.0,4.0,87,0.00,CLR,BKN,0.01,0.0,WeatherDisplay:10.37,2013-02-26 01:44:00,
2013-02-25 19:49:00,28.4,25.3,30.15,SSW,210,4.0,4.0,88,0.00,CLR,BKN,0.01,0.0,WeatherDisplay:10.37,2013-02-26 01:49:00,
2013-02-25 19:54:00,28.2,25.1,30.15,SSW,210,3.5,3.5,88,0.00,CLR,BKN,0.01,0.0,WeatherDisplay:10.37,2013-02-26 01:54:00,
2013-02-25 19:59:00,28.2,25.1,30.14,SSW,210,0.0,4.0,88,0.00,CLR,BKN,0.01,0.0,WeatherDisplay:10.37,2013-02-26 01:59:00,
2013-02-25 20:04:00,28.2,25.1,30.14,SSW,210,2.3,2.3,88,0.00,CLR,BKN,0.01,0.0,WeatherDisplay:10.37,2013-02-26 02:04:00,
2013-02-25 20:10:00,28.2,25.1,30.14,SSW,210,2.0,5.0,88,0.00,CLR,BKN,0.01,0.0,WeatherDisplay:10.37,2013-02-26 02:10:00,
2013-02-25 20:15:00,28.1,25.0,30.15,SSW,210,3.5,3.5,88,0.00,CLR,BKN,0.01,0.0,WeatherDisplay:10.37,2013-02-26 02:15:00,
2013-02-25 20:20:00,28.1,25.0,30.14,SSW,210,2.0,4.0,88,0.00,CLR,BKN,0.01,0.0,WeatherDisplay:10.37,2013-02-26 02:20:00,
2013-02-25 20:25:00,28.1,25.0,30.14,SSW,210,2.3,2.3,88,0.00,CLR,BKN,0.01,0.0,WeatherDisplay:10.37,2013-02-26 02:25:00,
2013-02-25 20:30:00,27.9,24.8,30.14,SSW,210,3.5,3.5,88,0.00,CLR,BKN,0.01,0.0,WeatherDisplay:10.37,2013-02-26 02:30:00,
2013-02-25 20:35:00,27.9,24.8,30.14,SSW,210,5.0,5.0,88,0.00,CLR,BKN,0.01,0.0,WeatherDisplay:10.37,2013-02-26 02:35:00,
2013-02-25 20:40:00,27.8,24.7,30.15,SSW,210,4.0,4.0,88,0.00,CLR,BKN,0.01,0.0,WeatherDisplay:10.37,2013-02-26 02:40:00,
2013-02-25 20:45:00,27.8,24.7,30.14,SSW,210,3.5,3.5,88,0.00,CLR,BKN,0.01,0.0,WeatherDisplay:10.37,2013-02-26 02:45:00,
2013-02-25 20:50:00,27.6,24.5,30.14,SSW,210,5.0,5.0,88,0.00,CLR,BKN,0.01,0.0,WeatherDisplay:10.37,2013-02-26 02:50:00,
2013-02-25 20:55:00,27.5,24.4,30.15,SSW,210,5.8,5.8,88,0.00,CLR,BKN,0.01,0.0,WeatherDisplay:10.37,2013-02-26 02:55:00,
2013-02-25 21:00:00,27.3,24.2,30.15,SSW,210,5.0,5.0,88,0.00,CLR,BKN,0.01,0.0,WeatherDisplay:10.37,2013-02-26 03:00:00,
2013-02-25 21:06:00,27.2,23.8,30.15,SSW,210,4.6,4.6,87,0.00,CLR,BKN,0.01,0.0,WeatherDisplay:10.37,2013-02-26 03:06:00,
2013-02-25 21:11:00,27.0,23.4,30.15,SSW,210,3.5,3.5,86,0.00,CLR,BKN,0.01,0.0,WeatherDisplay:10.37,2013-02-26 03:11:00,
2013-02-25 21:16:00,26.7,23.1,30.15,SSW,210,3.5,3.5,86,0.00,CLR,BKN,0.01,0.0,WeatherDisplay:10.37,2013-02-26 03:16:00,
2013-02-25 21:21:00,26.4,22.8,30.15,SSW,210,4.6,4.6,86,0.00,CLR,BKN,0.01,0.0,WeatherDisplay:10.37,2013-02-26 03:21:00,
2013-02-25 21:26:00,26.3,22.4,30.15,SSW,210,4.0,4.0,85,0.00,CLR,BKN,0.01,0.0,WeatherDisplay:10.37,2013-02-26 03:26:00,
2013-02-25 21:31:00,25.8,21.6,30.14,SSW,210,5.8,5.8,84,0.00,CLR,BKN,0.01,0.0,WeatherDisplay:10.37,2013-02-26 03:31:00,
2013-02-25 21:36:00,25.6,21.4,30.14,SSW,210,4.6,4.6,84,0.00,CLR,BKN,0.01,0.0,WeatherDisplay:10.37,2013-02-26 03:36:00,
2013-02-25 21:42:00,25.3,21.1,30.14,SSW,210,5.8,5.8,84,0.00,CLR,BKN,0.01,0.0,WeatherDisplay:10.37,2013-02-26 03:42:00,
2013-02-25 21:47:00,25.1,20.9,30.14,SSW,210,4.6,4.6,84,0.00,CLR,BKN,0.01,0.0,WeatherDisplay:10.37,2013-02-26 03:47:00,
2013-02-25 21:52:00,24.8,20.7,30.14,SSW,210,5.0,5.0,84,0.00,CLR,BKN,0.01,0.0,WeatherDisplay:10.37,2013-02-26 03:52:00,
2013-02-25 21:57:00,24.5,20.4,30.14,SSW,210,5.0,5.0,84,0.00,CLR,BKN,0.01,0.0,WeatherDisplay:10.37,2013-02-26 03:57:00,
2013-02-25 22:02:00,24.2,20.1,30.14,SSW,210,3.5,3.5,84,0.00,CLR,BKN,0.01,0.0,WeatherDisplay:10.37,2013-02-26 04:02:00,
2013-02-25 22:07:00,23.9,19.8,30.14,SSW,210,4.0,4.0,84,0.00,CLR,BKN,0.01,0.0,WeatherDisplay:10.37,2013-02-26 04:07:00,
2013-02-25 22:12:00,23.6,19.2,30.14,SSW,210,3.5,3.5,83,0.00,CLR,BKN,0.01,0.0,WeatherDisplay:10.37,2013-02-26 04:12:00,
2013-02-25 22:17:00,23.3,19.2,30.14,SSW,210,4.0,4.0,84,0.00,CLR,BKN,0.01,0.0,WeatherDisplay:10.37,2013-02-26 04:17:00,
2013-02-25 22:23:00,23.0,18.6,30.14,SSW,210,5.0,5.0,83,0.00,CLR,BKN,0.01,0.0,WeatherDisplay:10.37,2013-02-26 04:23:00,
2013-02-25 22:28:00,22.5,17.8,30.13,SSW,210,5.0,5.0,82,0.00,CLR,BKN,0.01,0.0,WeatherDisplay:10.37,2013-02-26 04:28:00,
2013-02-25 22:33:00,22.2,17.5,30.13,SSW,210,4.0,4.0,82,0.00,CLR,BKN,0.01,0.0,WeatherDisplay:10.37,2013-02-26 04:33:00,
2013-02-25 22:38:00,21.9,17.0,30.13,SSW,210,5.0,5.0,81,0.00,CLR,BKN,0.01,0.0,WeatherDisplay:10.37,2013-02-26 04:38:00,
2013-02-25 22:43:00,21.4,16.5,30.13,SSW,210,3.5,3.5,81,0.00,CLR,BKN,0.01,0.0,WeatherDisplay:10.37,2013-02-26 04:43:00,
2013-02-25 22:48:00,21.1,16.2,30.13,SSW,210,3.5,3.5,81,0.00,CLR,BKN,0.01,0.0,WeatherDisplay:10.37,2013-02-26 04:48:00,
2013-02-25 22:53:00,21.0,16.6,30.12,SSW,210,3.5,3.5,83,0.00,CLR,BKN,0.01,0.0,WeatherDisplay:10.37,2013-02-26 04:53:00,
2013-02-25 22:59:00,20.8,16.5,30.12,SSW,210,2.3,2.3,83,0.00,CLR,BKN,0.01,0.0,WeatherDisplay:10.37,2013-02-26 04:59:00,
2013-02-25 23:00:00,20.6,16.3,30.12,SSW,210,2.3,2.3,83,0.00,CLR,BKN,0.01,0.0,WeatherDisplay:10.37,2013-02-26 05:00:00,
2013-02-25 23:01:00,20.6,16.3,30.12,SSW,210,2.3,2.3,83,0.00,CLR,BKN,0.01,0.0,WeatherDisplay:10.37,2013-02-26 05:01:00,
2013-02-25 23:03:00,20.5,15.9,30.12,SSW,210,3.5,3.5,82,0.00,CLR,BKN,0.01,0.0,WeatherDisplay:10.37,2013-02-26 05:03:00,
2013-02-25 23:08:00,20.2,15.9,30.12,SSW,210,2.3,2.3,83,0.00,CLR,BKN,0.01,0.0,WeatherDisplay:10.37,2013-02-26 05:08:00,
2013-02-25 23:13:00,20.0,15.7,30.12,SSW,210,2.3,2.3,83,0.00,CLR,BKN,0.01,0.0,WeatherDisplay:10.37,2013-02-26 05:13:00,
2013-02-25 23:18:00,19.7,15.4,30.12,SSW,210,1.1,1.1,83,0.00,CLR,BKN,0.01,0.0,WeatherDisplay:10.37,2013-02-26 05:18:00,
2013-02-25 23:23:00,19.4,15.4,30.12,SSW,210,0.0,0.0,84,0.00,CLR,BKN,0.01,0.0,WeatherDisplay:10.37,2013-02-26 05:23:00,
2013-02-25 23:28:00,19.2,15.2,30.13,SSW,210,2.3,2.3,84,0.00,CLR,BKN,0.01,0.0,WeatherDisplay:10.37,2013-02-26 05:28:00,
2013-02-25 23:33:00,18.8,14.5,30.13,SSW,210,3.5,3.5,83,0.00,CLR,BKN,0.01,0.0,WeatherDisplay:10.37,2013-02-26 05:33:00,
2013-02-25 23:38:00,18.4,13.8,30.13,SSW,210,3.5,3.5,82,0.00,CLR,BKN,0.01,0.0,WeatherDisplay:10.37,2013-02-26 05:38:00,
2013-02-25 23:44:00,18.1,13.5,30.14,SSW,210,2.3,2.3,82,0.00,CLR,BKN,0.01,0.0,WeatherDisplay:10.37,2013-02-26 05:44:00,
2013-02-25 23:49:00,17.8,13.2,30.13,SSW,210,2.3,2.3,82,0.00,CLR,BKN,0.01,0.0,WeatherDisplay:10.37,2013-02-26 05:49:00,
2013-02-25 23:54:00,17.5,12.7,30.14,SSW,210,2.3,2.3,81,0.00,CLR,BKN,0.01,0.0,WeatherDisplay:10.37,2013-02-26 05:54:00,
2013-02-25 23:59:00,17.2,12.1,30.14,SSW,210,2.3,2.3,80,0.00,CLR,BKN,0.01,0.0,WeatherDisplay:10.37,2013-02-26 05:59:00,